sat.trackr.live / text

‹ back to catalog

STARLINK-4132

NORAD 53252 · 2022-086L

PAYLOAD ACTIVE UNKNOWN

§ Identity

Operator
Country
US
Launch date
2022-07-24
Launch site
AFETR
Launch vehicle
Mass (kg)
RCS (m²)

Purposes: comms

External: N2YO · Heavens-Above · Gunter

§ Orbital elements

Epoch: 2026-09-19T23:07:46.857792Z

Period
94.01 min
Inclination
53.1607°
Eccentricity
0.0001095
Mean motion
15.31705217 rev/d
Perigee alt
470.0 km
Apogee alt
471.5 km
Semi-major
6,848.9 km
B*
1.6436e-5
RAAN
27.7075°
Arg perigee
80.5540°
Mean anomaly
279.5586°
Rev number
23,060

§ Raw data

STARLINK-41321 53252U 22086L   26262.96373678  .00000145  00000+0  16436-4 0  99952 53252  53.1607  27.7075 0001095  80.5540 279.5586 15.31705217230601

JSON: /api/v1/satellites/53252 · /tle

For live sub-satellite position, see the globe view (requires WebGL).

§ Visibility from observer

Set your observer location to see the next 7 days of passes ≥ 10°. The values pass through the URL so the page stays shareable.

No JS? Fill the form by hand. The geolocation button needs JavaScript.